◎(719) Albertの軌道です

 我が国では,初めて,久万(中村彰正)で捕らえられました.



Observations of 2000 GY149 on May 1st and an orbit in MP1.ELS should be deleted.

     K00GE9Y  C2000 05 01.19935 11 38 04.81 +02 35 21.7          21.6 V c7846691

     K00GE9Y  C2000 05 01.20480 11 38 04.66 +02 35 23.5          21.8 V c7846691

     K00GE9Y  C2000 05 01.21052 11 38 04.53 +02 35 24.6          21.6 V c7846691

00719K00J08W* C2000 05 01.19935 11 38 04.81 +02 35 21.7          21.6 V b4687691

00719K00J08W  C2000 05 01.20480 11 38 04.66 +02 35 23.5          21.8 V b4687691

00719K00J08W  C2000 05 01.21052 11 38 04.53 +02 35 24.6          21.6 V b4687691

 

  (719) Albert 

Epoch 2001 Apr. 1.0 TT = JDT 2452000.5                  Nakano

M 327.19691              (2000.0)            P               Q

n   0.23017318     Peri.  154.29095     +0.93419458     +0.35636686

a   2.6369359      Node   184.92380     -0.35171735     +0.91205017

e   0.5479765      Incl.   11.30579     -0.05979455     +0.20289690

P   4.28           H   15.8           G   0.15           U   1

Residuals in seconds of arc 

J119G  024(18.8- 22.1+)   J97B6  261  0.1+  2.1+    K013T  428  0.5+  0.6+  

J119G  024(22.6- 14.8+)   J97B6  261 (1.3+  2.6+)   K0144  428  0.1+  1.8+  

J11A4  045 (2.7-  0.9+)   K0051  691  0.3-  0.4-    K0144  428  0.1+  0.4+  

J11A4  045  1.5+  0.8+    K0051  691  0.4-  0.1-    K0144  428  0.7+  0.5+  

J11A5  035 (4.8-  4.8+)   K0051  691  0.1-  0.4-    K0144  428  0.1-  0.4+  

J11A5  035 (5.9-  1.3+)   K0051  691  0.1-  0.7+    K0152  428  0.1+  0.7+  

J11AB  000  0.2-  0.1+    K0051  691  0.2+  1.3+    K0152  428  0.5+  0.1+  

J11AB  000  1.0-  1.5+    K0051  691  1.0+  0.2+    K0153  428  0.3+  0.2+  

J11AB  000  0.2+  1.3-    K0052  691  0.3+  0.1-    K0153  428  0.9-  0.3-  

J11AH  024 (7.6-  6.6+)   K0052  691  0.1-  0.2+    K015N  704  0.1-  0.1+  

J11AH  024 (7.9-  6.4+)   K0052  691  1.4+  0.3+    K015N  704  0.9-  0.4+  

J11AI  078(17.8- 19.4+)   K0056  691  0.7+  0.1+    K015N  704  0.5-  0.2+  

J71AJ  662  0.4+  1.3+    K0056  691  1.3+  0.2-    K015N  704  0.1+  0.2+  

J71AJ  662  0.2+  1.0+    K0056  691  0.8+  0.1-    K015P  360  0.2+  0.0   

J8882  413  0.3+  0.4-    K0059  695  0.1-  1.5+    K015P  360  0.2-  0.1-  

J8882  413  0.7-  0.7-    K0059  695  0.2+  1.3+    K015P  360  0.1-  0.0   

J93CB  261  1.8-  0.5-    K0059  695  0.0   1.5+                            

J93CB  261  1.3-  0.2+    K013T  428  0.8-  0.5+                            

 

NAKANO

         **** Don't distribute anyone except personal use only ****

                (C) Copyright 2001 OAA/ComputingSection

write mail from CFAD0::NAKANO on 2001-05-27 04:37:38(JST).



 ◎(719) Albertの軌道です

 すでに,IAUC7420とMPEC J37(2000)でご存知のとおり,最後まで行方

不明となって残っていた番号登録小惑星 (719) Albert が再発見されま

した.



  この小惑星について,私は,単純に軌道改良された軌道(a= 2.56 AU)

から,小さい方にaを変化させたa= 2.53 AUまでの7個の軌道と,大き

い方,a= 2.71 AUまで変化させて軌道改良した13個,計21個の軌道を持っ

ていました.実際に,新しく報告された観測群をサ−チすると,a= 2.64

AUの次の軌道(No.00719+7)から,



No.=  7  Searching from MP 278 to MP310



  00719+7    0.0  990810 179.49 154.27 184.91  11.32 0.5495  2.6382            

                           。     。                   ΔT       ,       ,       

2000JW8  2000  5  1.20    4.63 -0.86  21.6 691 15    9.911    0.0    -0.3      

         2000  5  9.17    4.45 -0.80       695       0.00     0.0    -0.2      



と,簡単に見つかります.



 いつも夜中に寝っころがっている間に「なぜ,サ−チをやっていなか

ったのか?」と疑問に思われるでしょう.少なくとも再発見が公表され

る5月9日以前,つまり,1日と2日,あるいは,6日の観測が入って

きたときまでに,サ−チを行なえば,簡単にこれを見つけることができ

たでしょう.しかし,最近,センタ−を出し抜くのが,何となく気が引

けるために,毎月の MPCの締切り直後に私のサ−チを行なっています.

そのとき,新しいMPC に出版されるべき観測は,ほとんどカスになって

いるのが現実でしょうが...

 それでも,ときどき,掘出し物が出てきます.事実,4月22日にその

カスに私のサ−チを行なったときには,彗星−小惑星の同定(ただし,

重複観測)を見つけています.

 

(719) Albert = 2000 JW8 

Epoch 2000 Feb. 26.0 TT = JDT 2451600.5                 Nakano

M 235.18239              (2000.0)            P               Q

n   0.23020876     Peri.  154.28323     +0.93418494     +0.35639089

a   2.6366641      Node   184.93021     -0.35174920     +0.91204944

e   0.5482816      Incl.   11.30883     -0.05975781     +0.20285797

P   4.28           H   15.7           G   0.15           U   4

 

 

NAKANO

         **** Don't distribute anyone except personal use only ****

                (C) Copyright 2000 OAA/ComputingSection

write mail from CFAD0::NAKANO on 2000-05-11 04:08:46(JST).



戻ります。